(305279) = 2007 YB63

Discovered at Kitt Peak on 2007-12-31 by Spacewatch.

Orbit

Orbit type: Main Belt

Note: WebGL enabled browser required.

epoch2022-01-21.0
epoch JD2459600.5
perihelion date2020-08-09.92998
perihelion JD2459071.42998
argument of perihelion (°)13.83417
ascending node (°)29.27779
inclination (°)2.18625
eccentricity0.0648885
perihelion distance (AU)2.5303283
Tisserand w.r.t. Jupiter3.4
ΔV w.r.t. Earth (km/sec)10.0
semimajor axis (AU)2.7059107
mean anomaly (°)117.15122
mean daily motion (°/day)0.22142860
aphelion distance (AU)2.881
period (years)4.45
P-vector [x]0.73010478
P-vector [y]0.62326354
P-vector [z]0.28015990
Q-vector [x]-0.68308049
Q-vector [y]0.65448007
Q-vector [z]0.32412480
absolute magnitude17.14
phase slope0.15
uncertainty0
referenceMPO 697249
observations used210
oppositions15
arc length (days)8015
first opposition used2000
last opposition used2022
residual rms (arc-secs)0.82
perturbers coarse indicatorM-v
perturbers precise indicator003Ek
first observation date used2000-04-12.0
last observation date used2022-03-23.0
computer namePan
JD of orbit computation2456465.477443
perihelion JD uncertainty (days)1.8381E-04
argument of perihelion uncertainty (°)1.2035E-04
ascending node uncertainty (°)1.1130E-04
inclination uncertainty (°)5.2189E-06
eccentricity uncertainty 6.6831E-08
perihelion distance uncertainty (AU)1.7723E-07
Minimum Orbit Intersection Distances (in AU)
for orbit epoch: 2458200.5, reference: MPO402167
Mercury2.20682
Venus1.81089
Earth1.53997
Mars1.01327
Jupiter2.37059
Saturn6.46756
Uranus15.3649
Neptune27.3255

Observations

213 total observations over interval: 2000 04 12.30376 – 2022 03 23.279890
These data are available for download (format description).

Date (UT) J2000 RA J2000 Dec Magn Location Ref
2000 04 12.30376 13 17 57.19 -07 43 42.8 21.2 V 691 – Steward Observatory, Kitt Peak-Spacewatch MPS 250567
2000 04 12.32470 13 17 56.09 -07 43 37.5 21.6 V 691 – Steward Observatory, Kitt Peak-Spacewatch MPS 250567
2000 04 12.34554 13 17 54.99 -07 43 31.8 21.2 V 691 – Steward Observatory, Kitt Peak-Spacewatch MPS 250567
2002 11 13.30365 02 59 36.87 +18 16 00.0 20.7 V 291 – LPL/Spacewatch II MPS 250567
2002 11 13.32895 02 59 35.39 +18 15 55.6 20.7 V 291 – LPL/Spacewatch II MPS 250567
2002 11 13.35362 02 59 33.94 +18 15 50.7 20.8 V 291 – LPL/Spacewatch II MPS 250567
2004 02 16.44742 10 58 46.01 +09 25 34.7 22.2 V 691 – Steward Observatory, Kitt Peak-Spacewatch MPS 250567
2004 02 16.50637 10 58 43.12 +09 25 51.6 21.9 V 691 – Steward Observatory, Kitt Peak-Spacewatch MPS 250567
2004 02 16.53404 10 58 41.77 +09 25 59.1 21.5 V 691 – Steward Observatory, Kitt Peak-Spacewatch MPS 250567
2006 09 26.17152 23 30 08.74 -05 22 54.7 20.6 V 691 – Steward Observatory, Kitt Peak-Spacewatch MPS 250567
2006 09 26.18887 23 30 07.86 -05 22 59.0 20.7 V 691 – Steward Observatory, Kitt Peak-Spacewatch MPS 250567
2006 09 26.20626 23 30 06.99 -05 23 03.3 20.8 V 691 – Steward Observatory, Kitt Peak-Spacewatch MPS 250567
2006 09 26.27321 23 30 03.63 -05 23 19.7 20.3 V G96 – Mt. Lemmon Survey MPS 250567
2006 09 26.27986 23 30 03.27 -05 23 22.0 20.2 V G96 – Mt. Lemmon Survey MPS 250567
2006 09 26.28677 23 30 02.91 -05 23 24.0 20.3 V G96 – Mt. Lemmon Survey MPS 250567
2006 09 26.29370 23 30 02.59 -05 23 25.4 20.4 V G96 – Mt. Lemmon Survey MPS 250567
2007 12 31.25025 07 55 58.21 +24 14 05.9 20.7 V 691 – Steward Observatory, Kitt Peak-Spacewatch MPS 250296
2007 12 31.26790 07 55 57.23 +24 14 09.8 20.9 V 691 – Steward Observatory, Kitt Peak-Spacewatch MPS 250296
2007 12 31.28302 07 55 56.41 +24 14 12.6 20.7 V 691 – Steward Observatory, Kitt Peak-Spacewatch MPS 250296
2008 01 15.19198 07 41 20.68 +24 55 50.1 20.4 V G96 – Mt. Lemmon Survey MPS 250296
2008 01 15.19832 07 41 20.29 +24 55 49.9 20.8 V G96 – Mt. Lemmon Survey MPS 250296
2008 01 15.20460 07 41 19.93 +24 55 51.9 20.4 V G96 – Mt. Lemmon Survey MPS 250296
2008 01 15.21105 07 41 19.50 +24 55 52.8 20.3 V G96 – Mt. Lemmon Survey MPS 250296
2008 01 30.18202 07 26 55.62 +25 23 21.3 20.8 V 691 – Steward Observatory, Kitt Peak-Spacewatch MPS 250296
2008 01 30.19935 07 26 54.70 +25 23 23.2 20.8 V 691 – Steward Observatory, Kitt Peak-Spacewatch MPS 250296
2008 01 30.21298 07 26 53.96 +25 23 23.9 20.9 V 691 – Steward Observatory, Kitt Peak-Spacewatch MPS 250296
2008 02 11.11366 07 18 15.34 +25 31 35.8   691 – Steward Observatory, Kitt Peak-Spacewatch MPS 250297
2008 02 11.13528 07 18 14.62 +25 31 35.7   691 – Steward Observatory, Kitt Peak-Spacewatch MPS 250297
2008 02 11.15690 07 18 13.81 +25 31 37.4   691 – Steward Observatory, Kitt Peak-Spacewatch MPS 250297
2009 04 21.27205 13 51 53.71 -11 33 50.1 20.7 V G96 – Mt. Lemmon Survey MPS 284471
2009 04 21.27954 13 51 53.28 -11 33 48.5 20.6 V G96 – Mt. Lemmon Survey MPS 284471
2009 04 21.28696 13 51 52.88 -11 33 46.9 20.3 V G96 – Mt. Lemmon Survey MPS 284471
2009 04 21.29449 13 51 52.48 -11 33 45.1 20.8 V G96 – Mt. Lemmon Survey MPS 284471
2010 07 05.39310 20 44 23.78 -21 35 29.9 21.3 V G96 – Mt. Lemmon Survey MPS 337408
2010 07 05.39958 20 44 23.53 -21 35 31.5 21.0 V G96 – Mt. Lemmon Survey MPS 337408
2010 07 05.40612 20 44 23.28 -21 35 32.8 20.6 V G96 – Mt. Lemmon Survey MPS 337408
2010 07 05.41265 20 44 22.95 -21 35 33.6 21.7 V G96 – Mt. Lemmon Survey MPS 337408
2011 09 24.45549 04 19 21.79 +22 13 50.6 20.8 V G96 – Mt. Lemmon Survey MPS 392728
2011 09 24.46110 04 19 21.90 +22 13 51.3 21.4 V G96 – Mt. Lemmon Survey MPS 392728
2011 09 24.46671 04 19 22.00 +22 13 52.2 20.4 V G96 – Mt. Lemmon Survey MPS 392728
2011 09 24.47242 04 19 22.15 +22 13 52.7 20.6 V G96 – Mt. Lemmon Survey MPS 392728
2011 10 25.42203 04 17 10.606 +22 43 39.54 20.9 w F51 – Pan-STARRS 1, Haleakala MPS 468576
2011 10 25.43658 04 17 10.109 +22 43 39.63 20.9 w F51 – Pan-STARRS 1, Haleakala MPS 468576
2011 10 25.45106 04 17 09.627 +22 43 39.58 21.1 w F51 – Pan-STARRS 1, Haleakala MPS 468576
2011 10 25.46552 04 17 09.131 +22 43 39.48 21.1 w F51 – Pan-STARRS 1, Haleakala MPS 468576
2011 10 30.43421 04 14 08.80 +22 42 07.5 20.3 V G96 – Mt. Lemmon Survey MPS 398289
2011 10 30.44170 04 14 08.48 +22 42 07.2 20.4 V G96 – Mt. Lemmon Survey MPS 398289
2011 10 30.44917 04 14 08.16 +22 42 07.0 20.2 V G96 – Mt. Lemmon Survey MPS 398289
2011 10 30.45671 04 14 07.83 +22 42 06.5 20.2 V G96 – Mt. Lemmon Survey MPS 398289
2011 11 03.36842 04 11 19.38 +22 39 32.4 21.0 V 691 – Steward Observatory, Kitt Peak-Spacewatch MPS 398289
2011 11 03.38622 04 11 18.56 +22 39 31.5 20.8 V 691 – Steward Observatory, Kitt Peak-Spacewatch MPS 398289
2011 11 03.40404 04 11 17.75 +22 39 30.9 20.6 V 691 – Steward Observatory, Kitt Peak-Spacewatch MPS 398289
2011 11 17.16928 03 59 05.66 +22 21 04.6 20.5 V 691 – Steward Observatory, Kitt Peak-Spacewatch MPS 401050
2011 11 17.17945 03 59 05.05 +22 21 03.4 20.3 V 691 – Steward Observatory, Kitt Peak-Spacewatch MPS 401050
2011 11 17.18962 03 59 04.44 +22 21 02.5 20.4 V 691 – Steward Observatory, Kitt Peak-Spacewatch MPS 401050
2011 11 22.38519 03 53 55.93 +22 10 47.5 20.1 V G96 – Mt. Lemmon Survey MPS 402293
2011 11 22.39038 03 53 55.57 +22 10 47.2 19.8 V G96 – Mt. Lemmon Survey MPS 402293
2011 11 22.39556 03 53 55.28 +22 10 46.6 19.8 V G96 – Mt. Lemmon Survey MPS 402293
2011 11 22.40073 03 53 54.96 +22 10 46.1 20.4 V G96 – Mt. Lemmon Survey MPS 402293
2011 11 24.51995 03 51 48.360 +22 06 12.59 20.6 g F51 – Pan-STARRS 1, Haleakala MPS 402293
2011 11 24.53238 03 51 47.596 +22 06 10.91 20.6 g F51 – Pan-STARRS 1, Haleakala MPS 402293
2011 11 24.54593 03 51 46.765 +22 06 09.19 20.0 r F51 – Pan-STARRS 1, Haleakala MPS 402293
2011 11 24.55765 03 51 46.044 +22 06 07.46 19.9 r F51 – Pan-STARRS 1, Haleakala MPS 402293
2011 11 30.06878 03 46 22.47 +21 53 32.8 20.8 R J04 – ESA Optical Ground Station, Tenerife MPS 404604
2011 11 30.09019 03 46 21.17 +21 53 29.1 20.0 R J04 – ESA Optical Ground Station, Tenerife MPS 404604
2011 11 30.11161 03 46 19.86 +21 53 26.0 20.8 R J04 – ESA Optical Ground Station, Tenerife MPS 404604
2011 11 30.30578 03 46 09.174 +21 52 59.31 20.4 i F51 – Pan-STARRS 1, Haleakala MPS 403814
2011 11 30.31837 03 46 08.421 +21 52 57.56 20.2 i F51 – Pan-STARRS 1, Haleakala MPS 403814
2011 12 01.16112 03 45 20.34 +21 50 57.2 20.4 V G96 – Mt. Lemmon Survey MPS 403814
2011 12 01.16524 03 45 20.12 +21 50 56.8 19.8 V G96 – Mt. Lemmon Survey MPS 403814
2011 12 01.16934 03 45 19.87 +21 50 56.0 20.1 V G96 – Mt. Lemmon Survey MPS 403814
2011 12 01.17344 03 45 19.62 +21 50 55.8 20.0 V G96 – Mt. Lemmon Survey MPS 403814
2011 12 01.48875 03 45 01.410 +21 50 11.74 21.1 g F51 – Pan-STARRS 1, Haleakala MPS 403814
2011 12 01.50255 03 45 00.581 +21 50 09.76 20.4 r F51 – Pan-STARRS 1, Haleakala MPS 403814
2011 12 01.51543 03 44 59.824 +21 50 07.82 20.3 r F51 – Pan-STARRS 1, Haleakala MPS 403814
2012 01 01.12979 03 26 02.18 +20 53 45.7 20.8 V G96 – Mt. Lemmon Survey MPS 407145
2012 01 01.13729 03 26 02.07 +20 53 45.6 20.8 V G96 – Mt. Lemmon Survey MPS 407145
2012 01 01.14492 03 26 01.93 +20 53 44.8 20.3 V G96 – Mt. Lemmon Survey MPS 407145
2012 01 01.15243 03 26 01.86 +20 53 44.9 20.9 V G96 – Mt. Lemmon Survey MPS 407145
2013 02 12.16266 11 42 33.24 +04 23 49.4 21.0 R J04 – ESA Optical Ground Station, Tenerife MPS 456206
2013 02 12.17424 11 42 32.81 +04 23 52.4 21.1 R J04 – ESA Optical Ground Station, Tenerife MPS 456206
2013 02 12.18581 11 42 32.38 +04 23 54.7 21.2 R J04 – ESA Optical Ground Station, Tenerife MPS 456206
2013 02 12.19739 11 42 32.02 +04 23 56.3 21.1 R J04 – ESA Optical Ground Station, Tenerife MPS 456206
2013 02 19.37924 11 38 00.29 +04 52 48.9   691 – Steward Observatory, Kitt Peak-Spacewatch MPS 457246
2013 02 19.39726 11 37 59.49 +04 52 53.7   691 – Steward Observatory, Kitt Peak-Spacewatch MPS 457246
2013 02 19.41512 11 37 58.74 +04 52 58.7   691 – Steward Observatory, Kitt Peak-Spacewatch MPS 457246
2013 03 05.36760 11 26 59.17 +05 59 15.3 21.7 V G96 – Mt. Lemmon Survey MPS 459163
2013 03 05.37343 11 26 58.81 +05 59 17.5 20.7 V G96 – Mt. Lemmon Survey MPS 459163
